Regional Weather Roundup
Issued by NWS Newport/Morehead, NC

Current Version | Previous Version | Graphics & Text | Print | Product List | Glossary Off
Versions: 1 2 3 4 5 6 7 8 9 10 11 12 13 14 15 16 17 18 19 20 21 22 23 24 25 26 27 28 29 30 31 32 33 34 35 36 37 38 39 40 41 42 43 44 45 46 47 48 49 50

669
ASUS42 KMHX 240713
RWRMHX
WEATHER ROUNDUP FOR EASTERN NORTH CAROLINA
NATIONAL WEATHER SERVICE NEWPORT/MOREHEAD CITY NC
300 AM EDT SAT JUN 24 2017

NOTE: "FAIR" INDICATES FEW OR NO CLOUDS BELOW 12,000 FEET
WITH NO SIGNIFICANT WEATHER AND/OR OBSTRUCTIONS TO VISIBILITY

NCZ015>017-031-032-045>047-102-103-240800-
NORTH COAST

CITY           SKY/WX    TMP DP  RH WIND       PRES   REMARKS
EDENTON        CLEAR     80  69  67 SW17      29.85F
ELIZABETH CITY CLEAR     79  70  74 SW22G29   29.83F
KITTY HAWK     SUNNY     79  71  77 SW10G24   29.85F
MANTEO         CLEAR     79  73  82 SW24G30   29.86F

$$

NCZ045>047-081-094-103-104-240800-
CENTRAL COAST

CITY           SKY/WX    TMP DP  RH WIND       PRES   REMARKS
FRISCO         PTCLDY    79  74  84 SW20G28   29.91F

$$

NCZ095-097-098-100-101-240800-
SOUTHERN COAST

CITY           SKY/WX    TMP DP  RH WIND       PRES   REMARKS
BEAUFORT       CLEAR     80  77  90 SW23G30   29.92F
CEDAR ISLAND   NOT AVBL
JACKSONVILLE   CLEAR     79  74  84 SW8       29.91F
PINEY ISLAND   SUNNY    N/A N/A N/A SW20G35   29.90F
WILMINGTON     PTCLDY    80  75  84 SW21G30   29.92F


$$

NCZ011>013-027>030-043-044-078>080-089-090>093-098-240800-
COASTAL PLAIN

CITY           SKY/WX    TMP DP  RH WIND       PRES   REMARKS
AHOSKIE          N/A     76  71  83 S10G17    29.82S
CLINTON        CLEAR     77  72  85 S7        29.90S
ELIZABETHTOWN  NOT AVBL
GOLDSBORO      CLEAR     78  74  88 SW13G22   29.86F
GREENVILLE     CLEAR     77  70  78 SW16G22   29.88F
HAVELOCK       PTCLDY    80  74  81 SW23G30   29.91F
KENANSVILLE    PTCLDY    77  72  83 SW6       29.90F
KINSTON        CLEAR     78  69  75 S17G23    29.89F
NEW BERN       CLEAR     78  73  84 SW12G22   29.91F
RICHLANDS      PTCLDY    77  72  84 S14       29.91F
ROCKY MOUNT    PTCLDY    77  73  87 S15G26    29.84F
WASHINGTON     CLEAR    N/A N/A N/A SW13      29.87F
WHITEVILLE     CLEAR     78  72  82 S10G17    29.92F

$$

AMZ130-135-150-152-154-156-158-170-250-252-270-ANZ085-086-088-633-658-670-240800-
MARINE OBSERVATIONS

STATION/POSITION TIME  TEMP    WIND        PRES    WAVE   SWELL
                       AIR SEA DIR/SP/G            HT/PER HT/PER
                 (UTC) (F)     (DEG/KT/KT) (MB)    (FT/S) (FT/S)
CHESAPEAKE LIGHT NOT AVBL
64 E VA BEACH    0650   75 70  220/ 23/ 27 1009.8    6/ 7   2/ 9
DUCK             0636   80 62  210/ 19/ 28 1010.1
2 E DUCK         NOT AVBL
OREGON INLET     0636   80 81  210/ 24/ 34 1011.4
13E OREGON INLT  0648      70                N/A     5/ 5   2/13
HATTERAS CG      0636   78 79  220/ 13/ 19 1012.8
DIAMOND BUOY     0650   81 80  220/ 23/ 27 1013.0    8/ 6   2/13
CAPE LOOKOUT     0700   80     210/ 17/ 24 1013.1
BEAUFORT LAB     0636   80 78  220/ 11/ 19 1012.9
30 SE NEW RVR IN 0608   80 81  220/ 21/ 31 1014.4
30 SE NEW RVR IN 0643      80                N/A     7/ 6
27 SE WRIGHTSVLE 0608   79 79  210/ 19/ 27 1013.8
5 SE WRIGHTSVLE  0608   80 78  200/ 12/ 23 1014.3
225 S CAPE HAT   0650   81 81  210/ 16/ 19 1018.0    4/ 8   3/ 8
41 SE CHARLESTON 0650   81 81  200/ 21/ 25 1015.0    6/ 6   2/ 8

$$




USA.gov is the U.S. government's official web portal to all federal, state and local government web resources and services.